This is the latest recevied weather packets stored in our database for station/object ES0THZ-13. If no packets are shown the sender has not sent any weather packets the latest 10 day(s).
| Time | Temp. | Humidity | Pressure | Rain* | Wind** | Luminosity | Snow |
|---|---|---|---|---|---|---|---|
| 1787858806 | 15.56° C | 79% | 1021.6 hPa | - | - | - | - |
| 1787857771 | 15.56° C | 79% | 1021.1 hPa | - | - | - | - |
| 1787856726 | 15.56° C | 78% | 1021.2 hPa | - | - | - | - |
| 1787855550 | 15.56° C | 78% | 1020.6 hPa | - | - | - | - |
| 1787853311 | 16.67° C | 76% | 1021.9 hPa | - | - | - | - |
| 1787852316 | 17.22° C | 75% | 1020.8 hPa | - | - | - | - |
| 1787851291 | 17.78° C | 73% | 1021 hPa | - | - | - | - |
| 1787850264 | 20° C | 72% | 1021.4 hPa | - | - | - | - |
| 1787849124 | 20.56° C | 71% | 1021.4 hPa | - | - | - | - |
| 1787847996 | 22.22° C | 69% | 1020.9 hPa | - | - | - | - |
| 1787846841 | 22.78° C | 69% | 1020.7 hPa | - | - | - | - |
| 1787845701 | 22.78° C | 68% | 1021.5 hPa | - | - | - | - |
| 1787844724 | 23.33° C | 67% | 1022.2 hPa | - | - | - | - |
| 1787843710 | 24.44° C | 66% | 1020.8 hPa | - | - | - | - |
| 1787842588 | 25° C | 66% | 1021.7 hPa | - | - | - | - |
| 1787841421 | 24.44° C | 66% | 1021.8 hPa | - | - | - | - |
| 1787840416 | 24.44° C | 66% | 1021.6 hPa | - | - | - | - |
| 1787839251 | 24.44° C | 66% | 1021 hPa | - | - | - | - |
| 1787838151 | 25.56° C | 65% | 1021.3 hPa | - | - | - | - |
| 1787837001 | 25.56° C | 66% | 1022 hPa | - | - | - | - |
| 1787835966 | 25.56° C | 67% | 1020.8 hPa | - | - | - | - |
| 1787834911 | 25° C | 67% | 1020.4 hPa | - | - | - | - |
| 1787833882 | 25.56° C | 67% | 1022.6 hPa | - | - | - | - |
| 1787832861 | 25.56° C | 68% | 1022.2 hPa | - | - | - | - |
| 1787831761 | 25.56° C | 69% | 1022.8 hPa | - | - | - | - |
* Rain since midnight (hover to see other rain measurements)
** Current wind speed in m/s (hover to see current wind gust speed)